Regional Weather Roundup
Issued by NWS Kansas City/Pleasant Hill, MO

Home | Current Version | Previous Version | Text Only | Print | Product List | Glossary On
Versions: 1 2 3 4 5 6 7 8 9 10 11 12 13 14 15 16 17 18 19 20 21 22 23 24 25 26 27 28 29 30 31 32 33 34 35 36 37 38 39 40 41 42 43 44 45 46 47 48 49 50
000
ASUS43 KEAX 131010
RWREAX

WEATHER ROUNDUP FOR EASTERN KANSAS AND NORTHWEST MISSOURI
NATIONAL WEATHER SERVICE KANSAS CITY/PLEASANT HILL MO
400 AM CST SAT FEB 13 2016

KSZ040-057-103>105-MOZ028-029-037-043-131100-
...KANSAS CITY METROPOLITAN AREA...

CITY           SKY/WX    TMP DP  RH WIND       PRES   REMARKS
K.C. INTL      CLOUDY    16   3  56 NE12      30.58F WCI   3
K.C. DOWNTOWN  CLOUDY    18   1  47 NE12      30.61F WCI   5
LEES SUMMIT    CLOUDY    16   1  51 NE12      30.59F WCI   3
OLATHE - IXD   CLOUDY    19   4  51 NE9       30.58S WCI   8
OLATHE - OJC   CLOUDY    17   3  54 NE8       30.57F WCI   7
LAWRENCE       CLOUDY    19   5  54 NE7       30.60F WCI  10

$$

MOZ001>008-011>017-020>025-030>033-038>040-044>046-053-054-131100-
...NORTHERN AND CENTRAL MISSOURI...

CITY           SKY/WX    TMP DP  RH WIND       PRES   REMARKS
ST. JOSEPH     CLOUDY    15   3  59 NE8       30.63F WCI   4
MOSBY          CLOUDY    18   3  53 NE7       30.62F WCI   8
WARRENSBURG    CLOUDY    18   5  57 N7        30.61F WCI   8
WHITEMAN AFB   CLOUDY    15   3  57 N12       30.60S WCI   2
CLINTON          N/A     21   7  53 NE10      30.60F WCI  10
SEDALIA        CLOUDY    17   3  54 N10       30.62S WCI   5
WARSAW         NOT AVBL
CHILLICOTHE      N/A     12   0  58 N9        30.65F WCI   0
KIRKSVILLE     CLOUDY     6  -2  69 N7        30.62R WCI  -6

$$

MOZ041-047>049-056>058-063>065-088>090-097-131100-
...EASTERN AND SOUTHERN MISSOURI...

CITY           SKY/WX    TMP DP  RH WIND       PRES   REMARKS
ST. LOUIS INTL PTCLDY    13   2  61 N9        30.61R WCI   1
SPIRIT OF STL  PTCLDY    13   3  64 N8        30.62R WCI   2
COLUMBIA       CLOUDY    14   3  61 N12       30.61R WCI   0
JEFFERSON CITY CLOUDY    16   3  56 N6        30.64R WCI   7
ROLLA          CLOUDY    15   4  61 N7        30.54R WCI   5
OSAGE BEACH    CLOUDY    18   1  49 N7        30.58R WCI   8
SPRINGFIELD    CLOUDY    23   2  40 N9        30.51S WCI  13
BRANSON        CLOUDY    27   9  46 N8        30.50S WCI  18
JOPLIN         CLOUDY    25   7  46 MISG      30.52F
WEST PLAINS    CLOUDY    23   7  50 N13       30.50S WCI  11

$$

IAZ060-094-KSZ022-034>040-054-083-096-NEZ052-066-093-131100-
...KANSAS...SOUTHEAST NEBRASKA AND IOWA...

CITY           SKY/WX    TMP DP  RH WIND       PRES   REMARKS
TOPEKA         CLOUDY    20   4  50 N9        30.59F WCI   9
MANHATTAN      CLOUDY    21  10  62 E10       30.57F WCI  10
EMPORIA        CLOUDY    21   7  54 NE7       30.54F WCI  12
CHANUTE        CLOUDY    26  10  50 NE10      30.54F WCI  16
WICHITA        CLOUDY    26  13  57 E14       30.48F WCI  14
OMAHA          CLOUDY    10  -1  61 CALM      30.65R
LINCOLN        CLOUDY    14   4  64 NE6       30.61S WCI   5
FALLS CITY     CLOUDY    15   3  59 NE8       30.61R WCI   4
LAMONI         CLOUDY     5  -2  72 NE10      30.60F WCI -10
DES MOINES     CLOUDY     3  -5  69 N6        30.63F WCI  -8

$$




USA.gov is the U.S. government's official web portal to all federal, state and local government web resources and services.